[[{"header":{"parameterUnit":"m.s-1","parameterCategory":2,"la1":30.2991,"la2":30.254,"lo1":-89.0895,"lo2":-89.0444,"dy":0.0017,"dx":0.0017,"nx":28,"ny":28,"refTime":"2025-08-05T21:00:00:Z","depth":"0","parameterNumber":2,"parameterNumberName":"U-component_of_CURRENTS"},"data":[0,0,0,0,0,0,0,0,0,0,0,0,0,0,0,0,0,0,0,0,0,0,0,0,0,0,0,0,0,0,0,0,0,0,0,0,0,0,0,0,0,0,0,0,0,0,0,0,0,0,0,0,0,0,0,0,0,0,0.3946,0.3947,0,0.4038,0.4038,0.4039,0.4053,0.4052,0.4052,0.4051,0.4047,0.4048,0.4048,0,0,0,0,0,0,0,0,0,0,0,0,0,0.3807,0.3809,0.3946,0.3947,0.3949,0.4037,0.4038,0.4039,0.4053,0.4052,0.4052,0.4051,0.4047,0.4048,0.4048,0,0,0,0,0,0,0,0,0,0,0,0,0,0.3878,0.381,0.3946,0.3968,0.3971,0.4037,0.4038,0.404,0.4053,0.4052,0.4051,0.4051,0.4047,0.4048,0.4048,0.4072,0,0,0.4051,0.4051,0,0,0,0,0,0,0,0,0.3874,0.3882,0.3963,0.3966,0.397,0.4035,0.3988,0.4046,0.4054,0.402,0.4051,0.405,0.4036,0.4038,0.4056,0.4072,0.4071,0.4051,0.4051,0.4051,0.4052,0,0,0,0,0,0,0,0.3869,0.3879,0.398,0.3965,0.3969,0.3982,0.399,0.4,0.4029,0.4022,0.4024,0.4038,0.4037,0.4055,0.4055,0.4071,0.4051,0.4051,0.4052,0.4052,0.4163,0.4165,0,0,0,0,0,0,0.3862,0.3874,0.3977,0.3983,0.3921,0.3985,0.3994,0.4013,0.4031,0.4034,0.4039,0.4039,0.4054,0.4054,0.4055,0.4129,0.4051,0.4052,0.4053,0.4161,0.4164,0.4166,0,0,0,0,0,0,0.3859,0.3871,0.3973,0.3932,0.3946,0.3988,0.4009,0.4015,0.4036,0.4045,0.4045,0.4054,0.4053,0.4054,0.4086,0.4127,0.4052,0.4053,0.4158,0.4161,0.4165,0.4248,0,0,0,0,0,0,0.3854,0.3869,0.3879,0.3932,0.3948,0.4017,0.4011,0.4018,0.4047,0.4047,0.4057,0.4056,0.4053,0.4085,0.4087,0.4127,0.4054,0.4154,0.4159,0.4164,0.4242,0.4254,0.4264,0,0,0,0,0,0.3849,0.3866,0.3879,0.3892,0.3962,0.4018,0.4028,0.4053,0.4049,0.4065,0.4083,0.4056,0.4116,0.4088,0.4089,0.413,0.4152,0.4158,0.4163,0.4237,0.4252,0.4264,0,0,0,0,0,0,0.3806,0.3871,0.3886,0.3921,0.3968,0.4021,0.4039,0.4058,0.4087,0.4084,0.4084,0.4086,0.4135,0.4122,0.4091,0.4179,0.4131,0.4138,0.4187,0.4201,0.4212,0.4236,0.4054,0,0,0,0,0,0.3804,0.3834,0.3898,0.3924,0.3948,0.3995,0.402,0.4043,0.4077,0.4089,0.4101,0.4121,0.4161,0.417,0.4194,0.4233,0.4272,0.4263,0.4274,0.4283,0.4306,0.4397,0.4419,0.4185,0.4185,0.4185,0,0,0.3792,0.3833,0.3848,0.3917,0.3952,0.4006,0.4007,0.4051,0.4096,0.4083,0.4134,0.4158,0.4182,0.424,0.4259,0.423,0.4379,0.4291,0.4298,0.4317,0.4405,0.4428,0.4449,0.4189,0.4188,0.4187,0,0,0.3795,0.3824,0.3857,0.3904,0.3969,0.4007,0.4022,0.4084,0.411,0.4167,0.4185,0.424,0.427,0.4319,0.4343,0.4429,0.444,0.4428,0.4497,0.4585,0.4605,0.4623,0.4737,0.4764,0.4427,0.4427,0.4428,0,0.3777,0.3837,0.3874,0.3926,0.3969,0.4011,0.4065,0.4107,0.4171,0.4207,0.4187,0.4305,0.4318,0.4424,0.4466,0.4456,0.4514,0.444,0.4601,0.4619,0.4636,0.4747,0.4777,0.4432,0.4432,0.4431,0.4431,0,0.3819,0.3868,0.3891,0.3976,0.4023,0.4074,0.4143,0.4189,0.422,0.4269,0.4367,0.4409,0.4476,0.4501,0.4513,0.4649,0.4657,0.4608,0.4565,0.4665,0.4776,0.4805,0.4439,0.4437,0.4436,0.4435,0,0,0.3779,0.3898,0.3906,0.3965,0.4056,0.4108,0.418,0.4276,0.4351,0.4397,0.451,0.4583,0.4605,0.4637,0.4664,0.4753,0.4938,0.4741,0.4744,0.4853,0.5169,0.5088,0.5112,0.4915,0.4919,0.4923,0.521,0,0.3804,0.3912,0.396,0.4064,0.4134,0.4193,0.4271,0.4357,0.4427,0.4544,0.4603,0.4716,0.4654,0.4724,0.4791,0.4925,0.5013,0.4867,0.5057,0.5064,0.4978,0.5142,0.4931,0.5161,0.5238,0.5243,0.5246,0,0.3837,0.3913,0.4017,0.4149,0.4182,0.4243,0.4386,0.4464,0.4613,0.4677,0.4766,0.4824,0.4984,0.4912,0.5133,0.5045,0.5113,0.5191,0.5202,0.5116,0.5036,0.5068,0.521,0.5074,0.5291,0.5287,0.5284,0,0.3829,0.3953,0.404,0.4084,0.4234,0.4285,0.4364,0.4501,0.4585,0.4784,0.4875,0.502,0.513,0.5235,0.5334,0.5271,0.5585,0.5504,0.5492,0.5489,0.5342,0.5316,0.5368,0.5654,0.5653,0.5652,0.5651,0,0.3858,0.3932,0.4045,0.4103,0.4215,0.4307,0.4434,0.4539,0.4697,0.4818,0.4937,0.5066,0.5215,0.537,0.5438,0.5567,0.5648,0.5564,0.557,0.5367,0.5341,0.5235,0.5171,0.5663,0.566,0.5658,0.5657,0,0.386,0.3931,0.4039,0.4176,0.4221,0.4303,0.4452,0.4546,0.4702,0.4871,0.4946,0.5164,0.5378,0.55,0.5736,0.5699,0.5693,0.5846,0.5612,0.5583,0.54,0.5348,0.5268,0.5105,0.5921,0.5921,0.5921,0,0.3891,0.3947,0.4071,0.4131,0.4193,0.4311,0.4393,0.4541,0.4633,0.4909,0.4993,0.5256,0.5401,0.5716,0.5765,0.5906,0.5703,0.5759,0.5574,0.5414,0.5363,0.5145,0.4996,0.5448,0.5444,0.5441,0.5439,0,0.3961,0.398,0.4063,0.4157,0.4236,0.431,0.4427,0.4487,0.4666,0.4807,0.5008,0.5164,0.5447,0.5515,0.5685,0.5721,0.5477,0.5694,0.559,0.5068,0.4776,0.461,0.5261,0.541,0.5413,0.5415,0.5416,0.5417,0.401,0.4047,0.4126,0.4198,0.4265,0.4286,0.4292,0.4406,0.4517,0.4655,0.4899,0.5048,0.5244,0.5461,0.5468,0.5332,0.5296,0.5174,0.5162,0.4984,0.4689,0.5289,0.5377,0.538,0.5382,0.5384,0.5386,0,0.4078,0.4103,0.4172,0.4213,0.4209,0.425,0.4295,0.4251,0.4294,0.4495,0.4631,0.4803,0.4904,0.5013,0.4997,0.4827,0.4592,0.47,0.4348,0.4253,0.4869,0.4705,0.4572,0.4572,0.4572,0.4572,0.4572,0.4572,0.4128,0.4176,0.4164,0.4142,0.4137,0.4041,0.4008,0.397,0.4043,0.4083,0.4151,0.429,0.455,0.4718,0.4572,0.4457,0.4102,0.3937,0.3926,0.4373,0.4414,0.4453,0.4283,0.4063,0.4063,0.3097,0.3091,0.3085]},{"header":{"parameterUnit":"m.s-1","parameterCategory":2,"la1":30.2991,"la2":30.254,"lo1":-89.0895,"lo2":-89.0444,"dy":0.0017,"dx":0.0017,"nx":28,"ny":28,"refTime":"2025-08-05T21:00:00:Z","depth":"0","parameterNumber":3,"parameterNumberName":"V-component_of_CURRENTS"},"data":[0,0,0,0,0,0,0,0,0,0,0,0,0,0,0,0,0,0,0,0,0,0,0,0,0,0,0,0,0,0,0,0,0,0,0,0,0,0,0,0,0,0,0,0,0,0,0,0,0,0,0,0,0,0,0,0,0,0,0.0158,0.0157,0,0.009,0.0089,0.0088,0.0033,0.0033,0.0032,0.0032,-0.0101,-0.0104,-0.0107,0,0,0,0,0,0,0,0,0,0,0,0,0,0.0194,0.0194,0.0158,0.0157,0.0156,0.009,0.0089,0.0088,0.0033,0.0033,0.0032,0.0032,-0.01,-0.0104,-0.0107,0,0,0,0,0,0,0,0,0,0,0,0,0,0.0157,0.0194,0.0158,0.0122,0.0118,0.009,0.0089,0.0088,0.0033,0.0033,0.0032,0.0031,-0.0099,-0.0103,-0.0108,-0.0122,0,0,-0.0122,-0.0124,0,0,0,0,0,0,0,0,0.0159,0.0155,0.0128,0.0124,0.012,0.007,0.0053,0.0015,0.0034,0.0064,0.0032,0.0031,-0.0049,-0.0057,-0.0069,-0.0129,-0.0134,-0.0122,-0.0125,-0.0127,-0.0129,0,0,0,0,0,0,0,0.0162,0.0158,0.013,0.0127,0.0122,0.0093,0.0088,0.0046,0.0011,0.0062,0.0058,0.0052,-0.0051,-0.0064,-0.0073,-0.0136,-0.0122,-0.0126,-0.0129,-0.0131,-0.0226,-0.0226,0,0,0,0,0,0,0.0175,0.016,0.0132,0.0128,0.0139,0.0094,0.0087,0.0086,0.0012,0.0001,0.0053,0.005,-0.0056,-0.0067,-0.0078,-0.0091,-0.0127,-0.0132,-0.0134,-0.0227,-0.0226,-0.0226,0,0,0,0,0,0,0.0176,0.0174,0.0135,0.0143,0.0136,0.0094,0.0093,0.0085,0.0074,0.0007,-0.0006,0.005,-0.0057,-0.0071,-0.0108,-0.0097,-0.0134,-0.0138,-0.0227,-0.0227,-0.0226,-0.0124,0,0,0,0,0,0,0.0178,0.0175,0.0179,0.0144,0.0136,0.0129,0.0094,0.0084,0.0072,0.0067,0.0,-0.0013,-0.0059,-0.0101,-0.0113,-0.0104,-0.0142,-0.0227,-0.0227,-0.0226,-0.0128,-0.012,-0.0114,0,0,0,0,0,0.0179,0.0193,0.018,0.0176,0.0144,0.013,0.0124,0.009,0.0073,0.0075,0.0029,-0.0011,-0.0106,-0.0104,-0.0118,-0.0111,-0.0228,-0.0227,-0.0226,-0.0131,-0.0122,-0.0114,0,0,0,0,0,0,0.0212,0.0188,0.0173,0.0178,0.016,0.0121,0.012,0.0098,0.0065,0.0059,-0.0006,-0.0022,-0.0052,-0.0096,-0.0091,-0.0139,-0.0175,-0.0177,-0.0097,-0.0089,-0.0082,-0.0049,-0.0145,0,0,0,0,0,0.0223,0.0225,0.0197,0.0202,0.0196,0.016,0.015,0.013,0.0096,0.0081,0.0035,-0.0017,-0.006,-0.0084,-0.0129,-0.0152,-0.016,-0.0159,-0.0152,-0.0146,-0.0129,-0.0126,-0.0115,-0.0224,-0.0224,-0.0224,0,0,0.0234,0.0223,0.0223,0.0209,0.019,0.0195,0.0152,0.0146,0.0148,0.0071,0.0058,0.0007,-0.0061,-0.0087,-0.0104,-0.0122,-0.0117,-0.0145,-0.0139,-0.0126,-0.0124,-0.0113,-0.0103,-0.0224,-0.0224,-0.0224,0,0,0.0267,0.0253,0.0267,0.0259,0.0243,0.0223,0.0227,0.0196,0.018,0.0161,0.0105,0.0066,0.0001,-0.004,-0.0072,-0.0054,-0.008,-0.0073,-0.0011,-0.0007,0.0003,0.0011,0.0033,0.0042,-0.007,-0.0069,-0.0069,0,0.0281,0.03,0.027,0.0285,0.029,0.0243,0.0268,0.0244,0.0205,0.0205,0.0169,0.0093,0.0024,0.0004,0.0001,-0.0037,-0.0027,-0.0034,0.0006,0.0014,0.0021,0.004,0.005,-0.0064,-0.0065,-0.0065,-0.0066,0,0.0329,0.0342,0.0353,0.0358,0.0358,0.0371,0.0342,0.0335,0.0308,0.0289,0.0267,0.0183,0.0141,0.0107,0.0053,0.0066,0.0061,0.0019,-0.0005,0.0039,0.0055,0.0063,-0.0057,-0.0059,-0.006,-0.0062,0,0,0.0367,0.0383,0.0388,0.0414,0.0403,0.0415,0.0416,0.0419,0.0449,0.0386,0.0425,0.0315,0.0279,0.0241,0.0171,0.0163,0.0203,0.0119,0.0117,0.0159,0.0241,0.0219,0.0225,0.018,0.0181,0.0182,0.024,0,0.0415,0.0473,0.0462,0.0518,0.0549,0.0518,0.0538,0.0531,0.0517,0.0542,0.0457,0.0463,0.0328,0.033,0.0287,0.024,0.0226,0.0193,0.0176,0.0176,0.0165,0.0233,0.0195,0.0242,0.0248,0.0249,0.025,0,0.0468,0.0506,0.0576,0.0624,0.0636,0.0664,0.071,0.0722,0.0725,0.0721,0.069,0.0641,0.0603,0.0496,0.0417,0.0411,0.0328,0.028,0.0281,0.0231,0.0167,0.0192,0.0256,-0.0015,0.0262,0.0261,0.026,0,0.0534,0.0584,0.0653,0.0668,0.0711,0.0745,0.0771,0.0787,0.0844,0.0861,0.0929,0.0833,0.0859,0.072,0.0577,0.0516,0.0527,0.0424,0.0324,0.0322,0.027,0.0261,0.0084,0.0374,0.0374,0.0374,0.0374,0,0.0599,0.0655,0.0697,0.0742,0.0852,0.0839,0.0956,0.0967,0.1028,0.1152,0.1041,0.1142,0.0926,0.0888,0.0686,0.0558,0.0602,0.0365,0.0343,0.0304,0.0298,0.0041,-0.0114,0.0376,0.0376,0.0375,0.0375,0,0.0674,0.0689,0.0786,0.0855,0.0894,0.098,0.1105,0.1186,0.1231,0.1399,0.1431,0.1426,0.1384,0.1158,0.0997,0.0758,0.0448,0.0533,0.0512,0.0485,0.0084,-0.0062,-0.0226,-0.0337,0.042,0.042,0.042,0,0.0724,0.0782,0.0898,0.0981,0.1028,0.1148,0.1243,0.1295,0.1406,0.1594,0.1703,0.1731,0.1783,0.1527,0.1126,0.0799,0.0512,0.0518,0.0355,0.0084,-0.0096,-0.0204,-0.0294,0.0335,0.0334,0.0334,0.0333,0,0.0846,0.0883,0.0969,0.1127,0.1244,0.1384,0.1526,0.1648,0.1752,0.1922,0.2152,0.2227,0.1996,0.1683,0.1213,0.093,0.0301,0.0493,0.0216,-0.0166,-0.0296,-0.0419,0.0283,0.0327,0.0328,0.0328,0.0329,0.0329,0.0953,0.1033,0.1138,0.129,0.1427,0.1602,0.1738,0.1914,0.2141,0.2417,0.2481,0.2663,0.2141,0.1509,0.1092,0.0268,0.0284,-0.002,-0.0164,-0.0238,-0.0395,0.0306,0.0313,0.0313,0.0314,0.0314,0.0314,0,0.1073,0.115,0.1296,0.1465,0.162,0.1668,0.1913,0.2068,0.2364,0.2659,0.2877,0.2745,0.2075,0.1353,0.0262,-0.0294,-0.052,-0.061,-0.081,-0.0863,-0.0235,-0.0294,-0.0421,-0.0421,-0.0421,-0.0421,-0.042,-0.042,0.1142,0.1277,0.1331,0.1589,0.1715,0.1923,0.2067,0.2342,0.2591,0.2948,0.3095,0.3167,0.2542,0.0647,-0.0645,-0.0933,-0.1341,-0.142,-0.1576,-0.1219,-0.1176,-0.1136,-0.1229,-0.1551,-0.1553,-0.216,-0.2167,-0.2172]}],[{"header":{"parameterUnit":"m.s-1","parameterCategory":2,"la1":30.2991,"la2":30.254,"lo1":-89.0895,"lo2":-89.0444,"dy":0.0017,"dx":0.0017,"nx":28,"ny":28,"refTime":"2025-08-05T21:00:00:Z","depth":"2","parameterNumber":2,"parameterNumberName":"U-component_of_CURRENTS"},"data":[0,0,0,0,0,0,0,0,0,0,0,0,0,0,0,0,0,0,0,0,0,0,0,0,0,0,0,0,0,0,0,0,0,0,0,0,0,0,0,0,0,0,0,0,0,0,0,0,0,0,0,0,0,0,0,0,0,0,0.2999,0.3,0,0.3032,0.3032,0.3032,0.3046,0.3046,0.3047,0.3047,0.3093,0.3094,0.3095,0,0,0,0,0,0,0,0,0,0,0,0,0,0.2905,0.2906,0.2999,0.3,0.3001,0.3032,0.3032,0.3032,0.3046,0.3046,0.3047,0.3047,0.3093,0.3094,0.3095,0,0,0,0,0,0,0,0,0,0,0,0,0,0.2938,0.2907,0.2999,0.3015,0.3018,0.3032,0.3032,0.3032,0.3046,0.3046,0.3047,0.3047,0.3093,0.3094,0.3095,0.3091,0,0,0.3099,0.31,0,0,0,0,0,0,0,0,0.2936,0.2941,0.3012,0.3014,0.3017,0.304,0.3016,0.3054,0.3045,0.303,0.3047,0.3048,0.308,0.3082,0.3079,0.3093,0.3095,0.3099,0.31,0.3101,0.3101,0,0,0,0,0,0,0,0.2934,0.2939,0.3007,0.3013,0.3016,0.3006,0.3011,0.3022,0.3047,0.3031,0.3033,0.3045,0.308,0.3078,0.3081,0.3096,0.3099,0.3101,0.3101,0.3102,0.32,0.3202,0,0,0,0,0,0,0.2942,0.2937,0.3006,0.3009,0.2983,0.3008,0.3014,0.3028,0.3047,0.3052,0.3044,0.3046,0.3076,0.3079,0.3083,0.3167,0.3101,0.3102,0.3103,0.3198,0.3201,0.3203,0,0,0,0,0,0,0.294,0.2948,0.3005,0.2977,0.2985,0.301,0.3025,0.3028,0.3049,0.3058,0.3062,0.3065,0.3076,0.3081,0.312,0.3166,0.3103,0.3104,0.3196,0.3199,0.3202,0.328,0,0,0,0,0,0,0.2937,0.2947,0.2962,0.2978,0.2987,0.3027,0.3025,0.3029,0.3056,0.3058,0.3077,0.308,0.3077,0.3118,0.3121,0.3167,0.3105,0.3194,0.3198,0.3201,0.3275,0.3285,0.3294,0,0,0,0,0,0.2933,0.2942,0.2963,0.2971,0.3007,0.3029,0.3032,0.3047,0.3057,0.3067,0.3089,0.3081,0.3143,0.312,0.3124,0.3171,0.3192,0.3197,0.3201,0.3271,0.3283,0.3294,0,0,0,0,0,0,0.289,0.2946,0.2968,0.299,0.302,0.3033,0.3042,0.3061,0.3084,0.3094,0.3099,0.3104,0.3155,0.3151,0.3126,0.3209,0.3168,0.3173,0.3221,0.3232,0.3241,0.3247,0.3106,0,0,0,0,0,0.2895,0.2932,0.297,0.299,0.3004,0.303,0.3044,0.3065,0.3087,0.3098,0.3116,0.314,0.317,0.3192,0.3206,0.325,0.3276,0.3284,0.3294,0.3301,0.3309,0.3391,0.3409,0.3216,0.3216,0.3216,0,0,0.2889,0.2921,0.2944,0.2987,0.3005,0.3036,0.3038,0.3069,0.3107,0.31,0.315,0.3169,0.3186,0.3237,0.3261,0.3245,0.3374,0.3307,0.3313,0.3316,0.3397,0.3416,0.3433,0.3219,0.3219,0.3218,0,0,0.2889,0.2918,0.2952,0.298,0.3029,0.3047,0.3065,0.3102,0.3129,0.3181,0.3193,0.3235,0.3276,0.3301,0.3318,0.3386,0.3414,0.3406,0.3467,0.3547,0.3564,0.3579,0.3653,0.3674,0.3418,0.3419,0.3419,0,0.2885,0.2925,0.2961,0.2994,0.3023,0.3058,0.3094,0.3124,0.3176,0.3217,0.3208,0.3304,0.3302,0.3388,0.3411,0.3406,0.3467,0.3423,0.3561,0.3576,0.359,0.3662,0.3685,0.3423,0.3422,0.3422,0.3422,0,0.2908,0.2946,0.2958,0.3025,0.3061,0.309,0.3147,0.3193,0.3233,0.3278,0.3371,0.3384,0.3443,0.346,0.3454,0.3566,0.3583,0.3558,0.3534,0.3615,0.3685,0.3707,0.3429,0.3427,0.3426,0.3425,0,0,0.289,0.2964,0.2973,0.3017,0.3082,0.3118,0.3186,0.3266,0.3346,0.3392,0.3487,0.3531,0.3558,0.3578,0.3594,0.3664,0.3799,0.3667,0.367,0.3743,0.4008,0.3883,0.3894,0.3825,0.3828,0.3831,0.4024,0,0.29,0.2962,0.3003,0.3077,0.3115,0.3177,0.3244,0.3332,0.3411,0.3508,0.3552,0.3646,0.3601,0.366,0.3713,0.3792,0.386,0.3751,0.3916,0.392,0.3801,0.3915,0.3612,0.3746,0.4044,0.4048,0.4051,0,0.2904,0.2958,0.3022,0.3128,0.3153,0.3208,0.3348,0.342,0.3556,0.3628,0.3722,0.3768,0.3876,0.3817,0.3984,0.3935,0.397,0.4015,0.4023,0.3891,0.3834,0.371,0.3774,0.4086,0.4084,0.4081,0.4079,0,0.2877,0.2967,0.3023,0.3055,0.3179,0.324,0.3313,0.346,0.3543,0.3726,0.3811,0.3937,0.4019,0.4096,0.4141,0.4108,0.4317,0.4271,0.419,0.4182,0.3942,0.3905,0.4376,0.4376,0.4375,0.4375,0.4374,0,0.2858,0.2916,0.302,0.3061,0.3161,0.3251,0.3392,0.349,0.3636,0.3739,0.3869,0.397,0.4102,0.4205,0.4224,0.4277,0.438,0.4228,0.4232,0.396,0.3924,0.4217,0.4196,0.4382,0.438,0.4379,0.4378,0,0.2828,0.2881,0.2973,0.3108,0.315,0.3235,0.3402,0.3493,0.3659,0.3794,0.3854,0.4051,0.4212,0.4299,0.4454,0.4386,0.4448,0.4422,0.4089,0.4047,0.4246,0.4227,0.4396,0.4393,0.4391,0.4389,0.4388,0,0.2828,0.2862,0.3,0.303,0.3092,0.3226,0.3299,0.3484,0.3588,0.3816,0.3865,0.4075,0.4159,0.4348,0.434,0.4386,0.4439,0.4099,0.3941,0.4266,0.4254,0.4238,0.4223,0.3678,0.3671,0.3665,0.366,0,0.2832,0.2871,0.2931,0.2984,0.3058,0.3162,0.329,0.336,0.3561,0.3664,0.3786,0.3865,0.4068,0.4,0.4079,0.4045,0.4069,0.3977,0.445,0.3693,0.3597,0.3582,0.3589,0.3607,0.3613,0.3617,0.3619,0.3622,0.282,0.2843,0.287,0.292,0.2984,0.3026,0.3044,0.3181,0.3272,0.3356,0.3555,0.3578,0.3694,0.3661,0.3581,0.3547,0.3807,0.364,0.3656,0.3679,0.3534,0.3437,0.3392,0.3396,0.3399,0.3402,0.3405,0,0.275,0.2756,0.2782,0.2808,0.2782,0.2897,0.2961,0.2933,0.2941,0.3111,0.3166,0.2961,0.2974,0.3096,0.297,0.298,0.2927,0.2862,0.2771,0.2828,0.2878,0.2688,0.2324,0.232,0.2316,0.2312,0,0,0.2698,0.2663,0.2661,0.2571,0.2597,0.2548,0.2533,0.2501,0.2563,0.2533,0.2557,0.2813,0.2995,0.2596,0.2579,0.2429,0.2592,0.2338,0.3219,0.3169,0.3213,0.3359,0.3136,0,0,0,0,0]},{"header":{"parameterUnit":"m.s-1","parameterCategory":2,"la1":30.2991,"la2":30.254,"lo1":-89.0895,"lo2":-89.0444,"dy":0.0017,"dx":0.0017,"nx":28,"ny":28,"refTime":"2025-08-05T21:00:00:Z","depth":"2","parameterNumber":3,"parameterNumberName":"V-component_of_CURRENTS"},"data":[0,0,0,0,0,0,0,0,0,0,0,0,0,0,0,0,0,0,0,0,0,0,0,0,0,0,0,0,0,0,0,0,0,0,0,0,0,0,0,0,0,0,0,0,0,0,0,0,0,0,0,0,0,0,0,0,0,0,0.0033,0.0032,0,-0.002,-0.0021,-0.0021,-0.0066,-0.0067,-0.0067,-0.0067,-0.0168,-0.0171,-0.0173,0,0,0,0,0,0,0,0,0,0,0,0,0,0.0049,0.0049,0.0033,0.0032,0.0032,-0.002,-0.0021,-0.0022,-0.0066,-0.0067,-0.0067,-0.0068,-0.0168,-0.017,-0.0173,0,0,0,0,0,0,0,0,0,0,0,0,0,0.0022,0.0049,0.0033,0.0004,0.0001,-0.002,-0.0021,-0.0022,-0.0066,-0.0067,-0.0067,-0.0068,-0.0167,-0.017,-0.0173,-0.0184,0,0,-0.0184,-0.0186,0,0,0,0,0,0,0,0,0.0024,0.0022,0.0009,0.0006,0.0003,-0.0036,-0.0052,-0.0078,-0.0066,-0.0042,-0.0067,-0.0068,-0.0127,-0.0134,-0.0144,-0.0188,-0.0193,-0.0184,-0.0187,-0.0188,-0.0189,0,0,0,0,0,0,0,0.0026,0.0024,0.0011,0.0008,0.0005,-0.0022,-0.0026,-0.0057,-0.0083,-0.0044,-0.0047,-0.0051,-0.013,-0.014,-0.0147,-0.0194,-0.0184,-0.0187,-0.019,-0.0191,-0.0265,-0.0265,0,0,0,0,0,0,0.0038,0.0026,0.0012,0.0009,0.0014,-0.0021,-0.0026,-0.0024,-0.0081,-0.009,-0.005,-0.0053,-0.0134,-0.0142,-0.015,-0.0158,-0.0188,-0.0191,-0.0193,-0.0265,-0.0265,-0.0265,0,0,0,0,0,0,0.0039,0.0038,0.0014,0.0017,0.0012,-0.0021,-0.0018,-0.0025,-0.0033,-0.0085,-0.0095,-0.0052,-0.0135,-0.0145,-0.0172,-0.0162,-0.0193,-0.0196,-0.0265,-0.0265,-0.0265,-0.0177,0,0,0,0,0,0,0.004,0.0039,0.0042,0.0018,0.0012,0.0014,-0.0018,-0.0025,-0.0034,-0.0038,-0.009,-0.01,-0.0136,-0.0167,-0.0176,-0.0168,-0.0199,-0.0265,-0.0265,-0.0265,-0.018,-0.0174,-0.0169,0,0,0,0,0,0.0041,0.0058,0.0043,0.0041,0.002,0.0015,0.001,-0.0017,-0.0034,-0.0029,-0.0067,-0.0098,-0.0172,-0.0169,-0.018,-0.0172,-0.0266,-0.0265,-0.0265,-0.0183,-0.0175,-0.0169,0,0,0,0,0,0,0.007,0.0054,0.0038,0.0049,0.0036,0.0008,0.0009,-0.001,-0.0036,-0.0042,-0.0094,-0.0106,-0.0128,-0.0163,-0.0158,-0.0195,-0.0225,-0.0227,-0.0159,-0.0153,-0.0147,-0.0119,-0.0202,0,0,0,0,0,0.0078,0.0084,0.0063,0.0072,0.0068,0.0038,0.0032,0.0016,-0.001,-0.0021,-0.0058,-0.01,-0.0135,-0.0153,-0.0188,-0.0204,-0.0236,-0.0209,-0.0203,-0.0198,-0.0184,-0.0221,-0.0216,-0.0264,-0.0264,-0.0264,0,0,0.009,0.0083,0.0085,0.0078,0.0063,0.0075,0.0033,0.0033,0.004,-0.0029,-0.0033,-0.008,-0.0135,-0.0154,-0.0167,-0.0181,-0.0203,-0.0198,-0.0192,-0.0181,-0.022,-0.0215,-0.0211,-0.0264,-0.0264,-0.0264,0,0,0.0128,0.0114,0.0133,0.013,0.0118,0.0103,0.0107,0.0084,0.007,0.0058,0.0008,-0.0027,-0.0078,-0.0112,-0.0137,-0.0121,-0.0171,-0.014,-0.0086,-0.0121,-0.0117,-0.0114,-0.0148,-0.0149,-0.0136,-0.0136,-0.0136,0,0.0142,0.0168,0.0139,0.016,0.0169,0.0123,0.0154,0.0134,0.0104,0.01,0.0068,-0.0005,-0.0055,-0.0076,-0.0076,-0.0106,-0.0135,-0.0104,-0.0112,-0.0109,-0.0107,-0.0143,-0.0145,-0.0132,-0.0132,-0.0132,-0.0133,0,0.0198,0.0217,0.0232,0.0244,0.0248,0.0267,0.0242,0.0236,0.0208,0.0186,0.0157,0.0083,0.0044,0.0014,-0.0028,-0.004,-0.0068,-0.0099,-0.0122,-0.0097,-0.0137,-0.014,-0.0125,-0.0127,-0.0128,-0.0129,0,0,0.0234,0.0266,0.0271,0.03,0.0298,0.0314,0.0322,0.0324,0.0341,0.0281,0.0294,0.0211,0.0167,0.0135,0.0071,0.0031,0.0009,-0.0022,-0.0026,-0.0043,-0.0068,-0.0114,-0.0122,-0.0023,-0.0023,-0.0023,-0.0101,0,0.0288,0.0359,0.0354,0.042,0.0458,0.0428,0.0445,0.0436,0.0414,0.0411,0.0322,0.0304,0.0215,0.0197,0.0143,0.0049,0.0004,0.0033,-0.0101,-0.0105,-0.0138,-0.0126,-0.0095,-0.0164,-0.0104,-0.0105,-0.0105,0,0.0343,0.0391,0.047,0.0525,0.0538,0.0561,0.0593,0.0605,0.0577,0.0561,0.0516,0.0446,0.0379,0.0297,0.0152,0.0175,0.0065,-0.002,-0.0026,-0.0098,-0.0157,-0.0182,-0.0173,-0.0111,-0.0111,-0.011,-0.011,0,0.0399,0.047,0.0542,0.0562,0.061,0.0633,0.0652,0.0648,0.0683,0.0659,0.0674,0.0572,0.0536,0.0385,0.0197,0.0179,0.0034,-0.0013,-0.0161,-0.0165,-0.018,-0.0186,-0.0116,-0.0115,-0.0115,-0.0115,-0.0115,0,0.0462,0.052,0.0575,0.0618,0.0708,0.0706,0.0787,0.0788,0.0809,0.0866,0.0757,0.0772,0.0557,0.0438,0.025,0.0042,0.0073,-0.0144,-0.0186,-0.0151,-0.0153,-0.0141,-0.0143,-0.0118,-0.0117,-0.0117,-0.0116,0,0.0511,0.0543,0.064,0.0712,0.0738,0.0803,0.0888,0.0944,0.0948,0.1018,0.1017,0.0935,0.0784,0.0548,0.0314,0.0126,-0.0081,-0.0167,-0.0113,-0.0148,-0.0271,-0.0268,-0.0332,-0.0335,-0.0336,-0.0338,-0.0339,0,0.0542,0.0595,0.0716,0.078,0.0815,0.0908,0.0971,0.1013,0.1087,0.1121,0.1165,0.1047,0.0978,0.0615,0.0275,-0.0057,-0.0096,-0.0256,-0.0296,-0.0258,-0.0292,-0.0286,-0.028,-0.0282,-0.0282,-0.0283,-0.0284,0,0.0607,0.0647,0.0732,0.0864,0.095,0.1066,0.1162,0.1249,0.1301,0.136,0.1409,0.1353,0.1006,0.0685,0.0223,-0.0005,-0.0203,-0.0281,-0.0242,-0.0235,-0.0218,-0.0249,-0.0243,-0.0289,-0.0288,-0.0288,-0.0288,-0.0287,0.0653,0.0724,0.0826,0.0953,0.1062,0.1199,0.1313,0.1422,0.1554,0.1646,0.158,0.151,0.1125,0.0548,0.0154,-0.0251,-0.0245,-0.039,-0.0384,-0.0379,-0.0363,-0.035,-0.0443,-0.0443,-0.0444,-0.0444,-0.0444,0,0.0709,0.0782,0.0901,0.1057,0.1186,0.1235,0.1422,0.1536,0.1706,0.1768,0.1789,0.142,0.1041,0.0617,0.0011,-0.0369,-0.0384,-0.0478,-0.0408,-0.04,-0.0394,-0.0376,-0.0462,-0.0463,-0.0464,-0.0464,0,0,0.0736,0.085,0.091,0.1122,0.1239,0.143,0.1552,0.1706,0.1807,0.1876,0.1842,0.1712,0.1182,0.0744,0.0231,-0.0104,-0.0161,-0.0173,-0.0122,0.0028,0.0039,-0.0314,-0.0275,0,0,0,0,0]}],[{"header":{"parameterUnit":"m.s-1","parameterCategory":2,"la1":30.2991,"la2":30.254,"lo1":-89.0895,"lo2":-89.0444,"dy":0.0017,"dx":0.0017,"nx":28,"ny":28,"refTime":"2025-08-05T21:00:00:Z","depth":"4","parameterNumber":2,"parameterNumberName":"U-component_of_CURRENTS"},"data":[0,0,0,0,0,0,0,0,0,0,0,0,0,0,0,0,0,0,0,0,0,0,0,0,0,0,0,0,0,0,0,0,0,0,0,0,0,0,0,0,0,0,0,0,0,0,0,0,0,0,0,0,0,0,0,0,0,0,0.172,0.1721,0,0.1807,0.1808,0.1809,0.1871,0.1871,0.1872,0.1872,0.1947,0.1949,0.195,0,0,0,0,0,0,0,0,0,0,0,0,0,0.1637,0.1638,0.172,0.1721,0.1722,0.1807,0.1808,0.1809,0.1871,0.1871,0.1872,0.1872,0.1947,0.1949,0.195,0,0,0,0,0,0,0,0,0,0,0,0,0,0.1693,0.1638,0.1719,0.1763,0.1768,0.1807,0.1808,0.181,0.187,0.1871,0.1872,0.1873,0.1946,0.1948,0.1951,0.1949,0,0,0.1958,0.1959,0,0,0,0,0,0,0,0,0.169,0.1696,0.1756,0.176,0.1766,0.1829,0.1807,0.1856,0.187,0.1831,0.1872,0.1873,0.1906,0.1912,0.1926,0.1952,0.1955,0.1958,0.1959,0.196,0.1961,0,0,0,0,0,0,0,0.1686,0.1693,0.1754,0.1757,0.1763,0.1789,0.1798,0.1816,0.1862,0.1834,0.1839,0.185,0.1909,0.1924,0.1928,0.1956,0.1958,0.196,0.1961,0.1962,0.2075,0.2076,0,0,0,0,0,0,0.1673,0.1689,0.1751,0.1756,0.1729,0.179,0.1799,0.1808,0.1863,0.1872,0.1849,0.1852,0.192,0.1926,0.1931,0.2016,0.196,0.1962,0.1963,0.2073,0.2075,0.2077,0,0,0,0,0,0,0.1671,0.1678,0.1747,0.1725,0.1736,0.179,0.1799,0.1809,0.1864,0.1874,0.1883,0.1898,0.192,0.1928,0.1976,0.2016,0.1963,0.1965,0.2071,0.2074,0.2076,0.2131,0,0,0,0,0,0,0.1668,0.1677,0.1698,0.1724,0.1737,0.1791,0.1799,0.181,0.1866,0.1873,0.1918,0.1924,0.1922,0.1973,0.1979,0.2018,0.1967,0.2069,0.2072,0.2075,0.2127,0.2135,0.2141,0,0,0,0,0,0.1665,0.1681,0.1698,0.1707,0.1758,0.1792,0.1802,0.1842,0.1868,0.1895,0.1926,0.1925,0.1997,0.1976,0.1982,0.2023,0.2068,0.2071,0.2075,0.2123,0.2133,0.2141,0,0,0,0,0,0,0.1665,0.1689,0.1709,0.1736,0.1773,0.1803,0.1839,0.1866,0.1914,0.1933,0.1943,0.195,0.2009,0.2008,0.1985,0.2065,0.2033,0.2038,0.2068,0.2077,0.2085,0.2079,0.1969,0,0,0,0,0,0.1672,0.169,0.1721,0.175,0.1771,0.1815,0.1844,0.1873,0.1908,0.1933,0.1962,0.1994,0.2023,0.2045,0.2067,0.2109,0.2126,0.214,0.2148,0.2154,0.2154,0.2218,0.2231,0.2089,0.2089,0.2089,0,0,0.168,0.1699,0.1711,0.1752,0.1788,0.1821,0.1836,0.189,0.1924,0.1931,0.1998,0.2025,0.2041,0.2088,0.2115,0.2097,0.2207,0.2159,0.2164,0.2161,0.2223,0.2237,0.2249,0.2092,0.2091,0.2091,0,0,0.169,0.1727,0.1741,0.1776,0.1832,0.1856,0.188,0.1932,0.1968,0.2025,0.2041,0.2086,0.2138,0.2148,0.216,0.2221,0.2246,0.2247,0.2279,0.2342,0.2354,0.2365,0.2418,0.2433,0.2248,0.2248,0.2248,0,0.1702,0.1725,0.1755,0.1785,0.1818,0.1874,0.1906,0.1947,0.2011,0.2044,0.2056,0.2149,0.2158,0.2211,0.2231,0.2237,0.2284,0.2243,0.2351,0.2362,0.2373,0.2424,0.244,0.2251,0.2251,0.2251,0.225,0,0.1715,0.1752,0.1772,0.1819,0.1858,0.1902,0.1952,0.2008,0.2062,0.21,0.2184,0.2206,0.2263,0.2275,0.2272,0.2353,0.2369,0.2356,0.2327,0.239,0.2441,0.2457,0.2256,0.2255,0.2254,0.2253,0,0,0.1686,0.1762,0.1774,0.1807,0.1884,0.1915,0.198,0.2047,0.211,0.2175,0.225,0.2294,0.2335,0.2351,0.2366,0.2408,0.2514,0.2423,0.2425,0.2473,0.2674,0.2499,0.2499,0.2542,0.2545,0.2547,0.2685,0,0.1692,0.174,0.178,0.1846,0.1876,0.195,0.2005,0.2079,0.2155,0.2244,0.229,0.2375,0.2358,0.2413,0.2452,0.2507,0.2558,0.2478,0.2608,0.2611,0.2445,0.251,0.2556,0.2697,0.2701,0.2703,0.2705,0,0.1683,0.1718,0.1769,0.1859,0.1884,0.1941,0.2054,0.2114,0.2239,0.2305,0.2398,0.2457,0.2541,0.2519,0.2641,0.2608,0.265,0.2675,0.2681,0.2503,0.2463,0.2619,0.2733,0.2731,0.2729,0.2727,0.2725,0,0.1626,0.1713,0.1753,0.1785,0.1889,0.1947,0.2023,0.2143,0.2212,0.237,0.2452,0.2557,0.2638,0.2706,0.2758,0.2737,0.2883,0.2854,0.2731,0.2721,0.2814,0.28,0.2941,0.294,0.294,0.294,0.2939,0,0.1594,0.1634,0.1744,0.1769,0.1845,0.1936,0.2036,0.2135,0.228,0.2363,0.2496,0.2574,0.2697,0.2787,0.2815,0.2817,0.2938,0.2745,0.2744,0.2835,0.2822,0.2826,0.281,0.2945,0.2944,0.2943,0.2942,0,0.1519,0.1586,0.1642,0.1767,0.1816,0.1878,0.2042,0.2095,0.2274,0.2393,0.2457,0.2635,0.2752,0.2841,0.2956,0.2874,0.29,0.2871,0.2979,0.298,0.2688,0.2674,0.2753,0.2748,0.2744,0.274,0.2737,0,0.1478,0.1496,0.1628,0.1662,0.173,0.1837,0.1884,0.2066,0.2129,0.2395,0.2426,0.2627,0.2717,0.2747,0.2846,0.2899,0.2859,0.2851,0.2738,0.2678,0.267,0.2663,0.2655,0.273,0.2729,0.2728,0.2727,0,0.1387,0.1448,0.1496,0.1572,0.1633,0.169,0.1801,0.1848,0.2044,0.2228,0.2355,0.2445,0.2568,0.2645,0.2708,0.273,0.2838,0.2805,0.2813,0.2707,0.2651,0.2646,0.2643,0.2712,0.2714,0.2715,0.2716,0,0.1326,0.1331,0.1395,0.1458,0.1521,0.1532,0.1611,0.1696,0.1797,0.2102,0.2134,0.2354,0.2535,0.2561,0.2614,0.2627,0.2585,0.2482,0.2505,0.2523,0.2379,0.227,0.222,0,0,0,0,0,0.1243,0.1224,0.1268,0.1311,0.1371,0.1412,0.1532,0.1613,0.1819,0.1847,0.2001,0.2112,0.2234,0.2344,0.2314,0.2502,0.2579,0.2453,0.2466,0.2629,0.2646,0.2495,0,0,0,0,0,0,0.1171,0.1195,0.1211,0.1172,0.1185,0.1217,0.1289,0.1426,0.1467,0.1707,0.1784,0.1971,0.2114,0.2233,0.2271,0.2303,0.2264,0.2593,0.2587,0.2619,0.2635,0.2649,0.2499,0,0,0,0,0]},{"header":{"parameterUnit":"m.s-1","parameterCategory":2,"la1":30.2991,"la2":30.254,"lo1":-89.0895,"lo2":-89.0444,"dy":0.0017,"dx":0.0017,"nx":28,"ny":28,"refTime":"2025-08-05T21:00:00:Z","depth":"4","parameterNumber":3,"parameterNumberName":"V-component_of_CURRENTS"},"data":[0,0,0,0,0,0,0,0,0,0,0,0,0,0,0,0,0,0,0,0,0,0,0,0,0,0,0,0,0,0,0,0,0,0,0,0,0,0,0,0,0,0,0,0,0,0,0,0,0,0,0,0,0,0,0,0,0,0,0.0049,0.0049,0,0.0016,0.0015,0.0015,-0.0012,-0.0012,-0.0012,-0.0013,-0.0079,-0.008,-0.0082,0,0,0,0,0,0,0,0,0,0,0,0,0,0.005,0.0051,0.0049,0.0049,0.0048,0.0016,0.0015,0.0015,-0.0012,-0.0012,-0.0012,-0.0013,-0.0078,-0.008,-0.0082,0,0,0,0,0,0,0,0,0,0,0,0,0,0.0036,0.0051,0.0049,0.0032,0.003,0.0016,0.0015,0.0015,-0.0012,-0.0012,-0.0013,-0.0013,-0.0077,-0.008,-0.0082,-0.0091,0,0,-0.0089,-0.009,0,0,0,0,0,0,0,0,0.0037,0.0036,0.0035,0.0033,0.0031,0.0007,-0.0008,-0.0022,-0.0012,0.0003,-0.0013,-0.0013,-0.0052,-0.0057,-0.0063,-0.0094,-0.0097,-0.0089,-0.0091,-0.0092,-0.0093,0,0,0,0,0,0,0,0.0038,0.0037,0.0035,0.0034,0.0032,0.0012,0.001,-0.0011,-0.0024,0.0002,-0.0,-0.0002,-0.0054,-0.0061,-0.0065,-0.0098,-0.0089,-0.0091,-0.0093,-0.0094,-0.0143,-0.0143,0,0,0,0,0,0,0.0046,0.0038,0.0036,0.0034,0.0034,0.0013,0.001,0.0014,-0.0023,-0.0028,-0.0002,-0.0003,-0.0057,-0.0062,-0.0067,-0.0067,-0.0092,-0.0094,-0.0095,-0.0143,-0.0143,-0.0143,0,0,0,0,0,0,0.0047,0.0047,0.0037,0.0036,0.0033,0.0014,0.0017,0.0013,0.0008,-0.0025,-0.0032,-0.0003,-0.0057,-0.0064,-0.008,-0.0071,-0.0095,-0.0097,-0.0143,-0.0143,-0.0143,-0.0075,0,0,0,0,0,0,0.0047,0.0047,0.0051,0.0037,0.0034,0.0038,0.0018,0.0013,0.0008,0.0006,-0.0028,-0.0035,-0.0058,-0.0077,-0.0083,-0.0074,-0.0099,-0.0143,-0.0143,-0.0143,-0.0078,-0.0073,-0.0069,0,0,0,0,0,0.0047,0.0061,0.0052,0.0051,0.004,0.0039,0.0036,0.0019,0.0008,0.0012,-0.0012,-0.0033,-0.008,-0.0078,-0.0085,-0.0078,-0.0144,-0.0143,-0.0143,-0.008,-0.0074,-0.0069,0,0,0,0,0,0,0.0066,0.0059,0.0048,0.006,0.0051,0.0035,0.0037,0.0024,0.0008,0.0005,-0.003,-0.0037,-0.005,-0.0075,-0.0072,-0.0093,-0.0117,-0.0118,-0.0066,-0.0061,-0.0056,-0.0041,-0.0101,0,0,0,0,0,0.0071,0.0079,0.0066,0.0075,0.0073,0.0054,0.005,0.0041,0.0026,0.0019,-0.0006,-0.0034,-0.0055,-0.0065,-0.0089,-0.0098,-0.0138,-0.01,-0.0095,-0.0091,-0.0085,-0.0136,-0.0135,-0.0142,-0.0142,-0.0142,0,0,0.008,0.0078,0.0081,0.0079,0.007,0.0082,0.0051,0.0054,0.0062,0.0014,0.0014,-0.0019,-0.0054,-0.0064,-0.0072,-0.0082,-0.0112,-0.0091,-0.0087,-0.0083,-0.0136,-0.0135,-0.0134,-0.0142,-0.0142,-0.0142,0,0,0.011,0.0101,0.0118,0.0118,0.0113,0.0103,0.0107,0.0092,0.0084,0.0079,0.0045,0.002,-0.0011,-0.0034,-0.0049,-0.0036,-0.0087,-0.0047,-0.0009,-0.0058,-0.0058,-0.0058,-0.0113,-0.0118,-0.0043,-0.0043,-0.0043,0,0.0119,0.0143,0.0123,0.0143,0.015,0.0118,0.0143,0.0132,0.0113,0.0108,0.0088,0.0035,0.0005,-0.001,-0.0004,-0.0024,-0.0065,-0.0023,-0.0052,-0.0053,-0.0054,-0.011,-0.0117,-0.004,-0.004,-0.004,-0.0041,0,0.0165,0.0183,0.0196,0.0211,0.0214,0.0231,0.0216,0.0212,0.0193,0.0175,0.0151,0.0101,0.0071,0.0054,0.0032,0.001,-0.0021,-0.004,-0.0061,-0.0049,-0.0109,-0.0118,-0.0035,-0.0036,-0.0037,-0.0038,0,0,0.0188,0.0222,0.0226,0.025,0.0254,0.0265,0.0276,0.0276,0.0284,0.0244,0.0241,0.0194,0.0156,0.0135,0.0092,0.0049,0.0003,0.0008,0.0003,-0.0039,-0.0115,-0.0114,-0.0124,-0.0024,-0.0025,-0.0025,-0.0154,0,0.0229,0.0289,0.029,0.0343,0.0372,0.0353,0.0369,0.0361,0.0339,0.0325,0.026,0.024,0.019,0.0175,0.0124,0.0033,-0.0016,0.0039,-0.0127,-0.0131,-0.0127,-0.0132,-0.0028,-0.0161,-0.0163,-0.0165,-0.0166,0,0.0272,0.031,0.0373,0.0417,0.0427,0.045,0.0466,0.0477,0.0445,0.0423,0.038,0.0326,0.0259,0.0214,0.0062,0.0098,0.0003,-0.0074,-0.0081,-0.0108,-0.0146,-0.0177,-0.0182,-0.018,-0.0179,-0.0178,-0.0177,0,0.0304,0.0365,0.0421,0.0438,0.048,0.0501,0.0517,0.0507,0.0526,0.0484,0.0481,0.0384,0.0336,0.0207,0.0052,0.0054,-0.0126,-0.0146,-0.0239,-0.0241,-0.0233,-0.0231,-0.0252,-0.0252,-0.0251,-0.0251,-0.0251,0,0.0346,0.0391,0.0444,0.0478,0.0543,0.0549,0.0604,0.0599,0.0601,0.0625,0.0536,0.0515,0.0332,0.021,0.0065,-0.0114,-0.0121,-0.0234,-0.0272,-0.0203,-0.0196,-0.024,-0.0236,-0.0256,-0.0255,-0.0254,-0.0253,0,0.0369,0.0404,0.0477,0.0539,0.0564,0.0609,0.0676,0.071,0.07,0.0724,0.0716,0.0604,0.0441,0.0252,0.0027,-0.009,-0.0263,-0.0324,-0.024,-0.0271,-0.0351,-0.0343,-0.0442,-0.0443,-0.0443,-0.0444,-0.0445,0,0.0385,0.0426,0.0524,0.0575,0.0608,0.068,0.073,0.0756,0.0795,0.0778,0.0787,0.0648,0.0549,0.0236,0.0025,-0.026,-0.0295,-0.0391,-0.0366,-0.0343,-0.037,-0.0361,-0.0352,-0.0446,-0.0446,-0.0447,-0.0447,0,0.0414,0.0451,0.0514,0.0625,0.0695,0.0777,0.0849,0.089,0.0915,0.0906,0.0851,0.0691,0.05,0.0247,0.0023,-0.0179,-0.0331,-0.0401,-0.04,-0.0378,-0.0349,-0.0374,-0.0364,-0.045,-0.0449,-0.0449,-0.0449,0,0.0437,0.0483,0.0573,0.0671,0.0762,0.085,0.0887,0.0931,0.0967,0.0951,0.0923,0.0721,0.0595,0.0287,0.0081,-0.0119,-0.0169,-0.023,-0.0239,-0.0239,-0.014,-0.0072,-0.0119,0,0,0,0,0,0.046,0.0522,0.0612,0.0726,0.0816,0.0871,0.0958,0.0986,0.1011,0.0989,0.0966,0.0794,0.0485,0.0342,0.0143,0.0052,-0.0215,-0.019,-0.0291,-0.0466,-0.0463,-0.0381,0,0,0,0,0,0,0.0479,0.0565,0.0617,0.0751,0.083,0.0932,0.0989,0.1006,0.0997,0.0987,0.0827,0.0743,0.044,0.0602,0.0139,0.0075,-0.0017,-0.0337,-0.0341,-0.0468,-0.0465,-0.0462,-0.0377,0,0,0,0,0]}]]